Theta_e
311 310 310 309 308 309 308 309 309 309 309 309 309 309 309 309 309 309 309 309 309 306 303 308 314 315 317 318 318 318 318 319 319 319 319 319 320 319 320 319 318 319 319
311 312 311 310 309 308 309 309 309 309 309 309 310 310 310 310 310 310 310 310 310 309 305 304 310 314 315 316 316 317 317 318 319 319 319 319 319 319 320 319 320 319 319
312 312 311 311 310 310 309 309 309 310 310 311 311 312 311 311 311 311 310 310 310 309 307 304 304 304 312 315 316 316 316 317 317 317 318 318 319 319 319 319 319 319 320
312 312 311 311 311 311 310 310 310 311 312 312 312 313 312 312 312 311 310 309 309 308 307 307 304 304 304 309 314 315 315 315 316 316 316 317 317 317 318 318 318 319 318
313 313 312 312 311 311 311 310 311 311 312 312 313 311 312 312 310 310 309 308 307 307 308 308 309 308 306 306 306 311 313 314 314 315 316 316 316 316 317 317 317 318 318
314 313 313 312 312 311 311 312 311 311 312 312 312 313 312 310 310 309 310 308 307 307 308 310 310 309 309 310 309 308 308 313 313 314 315 315 316 316 316 317 317 317 317
315 314 313 312 312 312 311 312 312 313 312 313 313 315 311 310 310 309 310 310 309 308 311 310 310 310 310 310 310 309 307 306 312 313 314 315 315 316 316 316 316 316 316
316 314 313 313 312 312 312 312 313 312 312 313 314 315 312 311 310 310 311 310 309 309 311 311 311 310 310 310 310 309 308 306 307 312 313 314 315 315 315 315 315 315 315
316 315 313 312 312 312 312 312 313 312 313 314 312 314 314 315 312 311 311 311 309 310 309 311 311 310 310 310 309 308 308 307 306 307 312 313 314 314 314 314 314 314 314
316 315 314 312 312 312 313 313 313 313 312 314 314 312 313 313 312 313 313 312 310 309 309 310 311 311 310 310 309 309 308 306 306 306 309 312 313 313 313 314 314 314 314
316 316 314 312 312 313 313 313 313 314 313 312 315 314 312 312 312 311 312 313 312 313 313 312 311 311 310 309 309 308 307 306 306 306 306 306 311 312 312 312 313 313 313
316 315 314 313 312 312 313 313 313 313 313 313 313 315 313 313 312 311 308 311 312 315 313 313 311 311 310 309 308 308 307 306 307 306 306 306 307 309 310 311 311 312 312
317 316 315 314 313 312 312 313 313 313 313 312 312 314 315 314 315 312 313 313 311 314 313 312 312 310 310 309 308 308 307 306 308 308 306 305 305 304 307 310 310 310 310
318 317 315 314 313 312 313 313 313 313 313 312 313 313 314 314 314 314 314 313 311 312 313 313 312 311 310 309 308 308 307 306 308 308 306 305 304 303 306 309 309 309 309
318 318 316 314 313 313 312 313 313 313 312 312 313 314 314 314 314 314 313 313 313 310 311 314 312 311 310 309 309 308 308 307 308 307 306 305 304 300 304 307 307 307 307
319 319 317 315 313 312 313 312 312 312 312 313 314 314 314 314 314 314 313 313 312 313 309 313 313 311 310 310 309 308 308 308 307 307 305 305 303 299 303 306 305 305 303
320 319 318 316 315 313 312 312 312 312 312 314 315 315 315 314 314 314 313 312 312 312 310 311 312 311 310 310 309 309 309 308 307 306 304 303 302 298 300 302 301 301 302
320 320 318 317 316 315 313 312 312 313 313 314 315 315 315 315 314 313 313 312 312 311 311 310 311 311 310 309 309 309 308 308 306 305 303 303 300 300 300 298 298 300 299
320 320 319 317 316 315 314 313 312 312 313 314 315 316 315 314 314 313 313 312 311 311 311 311 310 310 310 309 309 308 309 307 306 304 303 301 301 301 298 297 298 298 297
319 319 319 318 316 315 314 313 313 312 313 314 316 316 316 315 314 313 313 312 312 311 311 311 310 310 309 308 309 309 308 307 307 303 300 300 301 300 295 298 299 297 296
318 318 318 317 317 315 314 314 313 313 313 315 315 316 316 315 315 313 313 312 312 311 311 310 309 309 308 309 309 309 308 308 306 302 300 300 298 294 296 298 298 297 296
317 317 317 317 316 316 314 314 313 313 313 314 315 316 316 315 315 314 313 312 312 311 310 309 309 309 308 309 309 309 309 306 300 301 300 298 295 295 296 297 297 295 296
316 316 316 316 316 316 315 314 314 313 313 314 314 315 315 315 315 314 313 313 312 312 311 310 309 309 309 309 310 309 307 306 302 300 300 296 295 295 296 295 293 294 295
315 315 315 315 315 314 315 314 314 313 313 314 314 314 314 314 314 314 313 313 312 312 311 310 309 308 309 310 310 309 308 305 303 301 297 296 296 295 293 292 293 295 295
315 315 315 315 315 314 314 314 314 313 313 313 314 315 315 314 314 314 313 312 311 311 311 310 309 310 311 310 309 307 304 301 298 296 296 296 295 294 293 293 295 295 294
314 315 315 315 315 315 314 314 314 314 313 312 313 315 315 315 315 314 313 311 309 309 309 309 308 308 308 309 308 307 305 300 296 295 296 296 294 293 291 291 294 293 290
Wind_Speed
8 8 7 8 4 5 3 3 3 3 3 5 3 5 4 4 3 4 6 8 8 7 4 3 4 4 5 6 7 7 8 9 9 9 10 10 11 12 12 12 12 12 12
11 10 8 8 7 6 4 4 4 5 3 4 5 4 4 4 5 5 6 7 7 7 4 4 4 5 5 6 7 8 9 10 10 11 11 12 12 13 13 14 14 14 13
12 11 10 8 6 7 7 6 2 4 4 4 6 6 5 5 5 3 4 5 5 5 5 3 3 4 5 5 6 7 9 10 10 11 11 12 13 14 15 15 15 17 16
14 12 11 10 8 10 7 6 5 5 4 6 6 5 4 4 5 5 4 1 2 1 3 4 4 4 4 5 6 7 8 9 10 11 11 12 13 14 15 15 16 17 18
16 16 13 11 10 10 8 6 5 5 5 4 4 5 4 6 4 6 1 2 1 3 2 3 7 5 4 6 7 7 8 8 10 11 12 12 13 14 15 16 17 17 18
18 16 15 13 12 12 10 9 8 6 7 6 5 4 3 2 5 7 2 1 1 3 2 5 10 4 5 7 9 8 8 8 9 9 10 11 12 14 15 15 16 17 18
20 19 18 15 15 14 12 10 8 7 7 4 5 4 3 2 3 5 1 3 4 3 4 4 7 6 6 7 8 9 8 8 9 10 11 12 13 14 15 15 16 17 17
21 21 21 19 17 16 15 14 13 10 7 7 3 1 1 2 9 6 6 6 8 6 1 3 7 5 5 5 7 8 9 11 12 11 12 12 13 14 15 15 16 17 17
25 24 22 21 20 18 17 16 16 14 10 9 9 4 1 3 3 8 10 7 11 12 8 6 7 5 5 4 6 9 10 12 14 12 12 13 13 14 14 15 15 16 17
27 27 26 23 22 20 20 18 16 17 15 12 9 12 9 3 2 1 6 10 9 12 11 9 7 7 6 6 5 8 10 14 13 13 12 12 13 13 14 15 15 15 16
29 29 29 27 26 24 22 20 19 20 18 17 14 7 11 10 8 2 2 5 11 10 8 9 8 9 8 7 6 9 10 13 13 12 12 13 12 13 14 15 15 15 14
29 31 30 29 28 27 26 23 21 22 21 21 19 17 14 6 9 6 3 6 6 4 9 11 11 11 11 9 8 8 10 13 10 11 13 13 13 14 14 14 14 14 14
31 33 33 32 32 30 28 26 25 25 25 24 23 23 21 19 9 17 9 5 4 7 9 13 14 12 13 11 9 9 10 10 11 12 15 14 14 14 14 14 14 14 14
34 33 33 34 33 32 30 28 28 27 28 27 27 25 25 25 23 18 15 9 1 11 14 11 13 15 13 12 9 11 10 11 10 13 17 14 14 14 14 14 14 14 14
32 32 33 34 35 33 32 32 31 30 29 29 30 29 28 25 24 23 22 19 12 4 6 10 10 16 14 13 11 11 10 10 12 15 14 14 15 17 15 14 14 13 13
34 31 33 33 34 34 33 32 33 32 30 31 30 29 31 29 26 25 25 25 24 15 3 9 21 13 13 13 12 10 10 11 13 13 14 14 18 20 12 11 12 13 15
35 35 35 35 35 35 36 35 34 33 33 32 31 31 31 31 30 28 27 27 27 25 12 10 9 11 15 14 12 11 13 13 11 12 13 15 18 13 8 10 14 14 12
41 41 40 39 39 38 38 39 38 36 36 36 35 34 34 31 31 30 30 30 29 27 24 12 15 15 14 14 15 14 13 10 11 13 11 14 15 11 13 16 16 11 11
38 42 43 44 45 44 43 43 43 42 41 41 39 38 38 35 35 35 33 32 30 28 26 21 15 13 14 14 15 13 12 12 10 12 13 14 12 12 15 14 12 13 16
38 39 43 45 45 45 45 45 45 45 43 42 40 40 41 40 41 39 38 36 31 30 28 26 24 21 18 15 15 15 14 12 15 16 16 8 12 14 15 8 10 13 19
37 38 39 40 42 44 44 44 45 45 42 41 42 42 43 44 43 43 40 41 37 34 31 29 25 19 21 17 17 15 15 14 16 16 10 11 13 17 8 5 12 17 19
35 37 39 40 41 43 42 45 47 43 45 42 44 46 45 45 44 43 43 42 41 39 33 26 21 19 27 25 20 19 17 9 3 8 10 15 18 12 7 10 15 16 14
35 37 40 41 42 44 43 44 48 45 43 45 43 42 45 44 47 45 43 42 38 39 39 38 30 31 25 25 22 22 19 15 12 15 15 17 11 14 8 13 17 13 11
34 37 38 39 41 42 44 46 46 50 41 40 42 43 43 41 44 47 46 43 44 41 39 39 36 33 27 22 25 25 20 16 16 16 14 7 7 13 13 15 11 5 7
30 35 37 38 40 41 41 43 45 45 45 42 44 46 46 44 44 46 45 43 41 42 43 40 36 29 26 23 24 22 18 15 7 8 11 8 6 9 12 5 2 6 9
27 30 34 37 40 42 41 43 44 43 41 40 41 41 48 48 49 49 50 44 36 43 44 41 39 38 36 31 28 28 24 21 10 4 14 11 5 3 4 5 7 9 14
Wind_Direction
212 214 220 233 221 225 214 227 272 271 294 289 264 293 300 299 294 290 292 305 325 326 303 288 290 305 309 317 323 327 326 327 329 330 328 327 323 321 315 317 317 313 315
213 210 216 216 218 235 207 234 248 255 265 283 284 266 291 304 304 306 306 303 325 338 320 313 294 295 302 308 315 318 320 318 319 319 320 319 317 315 313 315 309 310 306
211 215 212 220 209 227 224 227 232 277 290 301 295 305 289 293 273 277 277 285 300 349 8 338 325 316 301 309 313 316 317 319 319 321 320 315 313 311 310 312 313 311 308
209 210 212 215 214 222 227 221 232 253 271 287 297 308 295 272 262 235 239 210 214 268 49 24 1 335 322 314 315 318 318 320 321 321 319 315 315 314 314 312 312 310 306
214 212 212 213 221 229 227 223 230 254 276 282 292 300 282 275 187 166 109 56 118 142 50 15 349 348 353 345 333 327 326 327 325 324 322 320 321 321 320 319 316 312 310
215 217 213 214 217 225 224 228 235 230 260 278 288 266 257 227 197 191 216 205 207 136 85 13 0 354 344 345 345 352 344 336 335 336 337 336 337 334 333 330 323 321 317
218 217 217 218 217 223 227 224 233 238 253 246 286 227 194 197 194 175 242 216 238 182 23 26 323 336 331 333 328 342 345 351 347 342 339 338 339 339 336 332 330 328 325
218 220 219 217 219 224 220 218 225 224 230 220 214 172 166 232 230 241 254 215 221 208 234 293 296 298 300 312 315 316 337 347 341 340 336 336 337 338 336 332 330 329 327
217 219 223 220 216 220 225 224 223 224 216 211 210 200 121 220 179 198 233 230 207 226 247 267 285 280 277 277 289 319 332 335 336 337 337 337 338 337 334 331 330 328 327
219 221 221 220 220 220 224 224 226 225 220 214 213 225 237 244 169 287 218 227 225 230 242 256 261 255 264 266 295 313 319 328 334 338 339 337 336 334 333 332 330 328 326
221 221 223 222 220 219 228 227 222 227 224 222 213 187 217 223 228 178 229 222 218 243 244 248 239 241 242 256 276 299 313 324 329 334 336 336 332 332 334 333 330 327 326
221 221 223 224 224 223 222 226 227 227 227 225 221 223 209 184 202 196 211 233 221 237 226 231 243 229 235 247 270 281 306 322 327 332 334 329 327 331 333 333 329 325 324
216 221 219 222 222 223 224 224 226 228 230 227 224 221 226 224 217 213 200 212 218 230 228 244 241 227 232 240 264 285 309 318 321 326 322 320 322 325 327 325 325 324 323
222 225 222 223 225 223 223 224 228 231 231 233 230 228 226 228 226 221 214 195 263 243 231 233 223 229 235 240 268 283 303 316 310 314 315 317 318 318 319 321 320 319 319
227 228 229 224 224 226 224 224 226 230 231 232 233 231 229 227 228 225 222 212 192 203 229 233 200 218 228 235 264 280 299 305 308 308 308 312 319 320 312 315 318 318 320
225 223 226 228 225 224 224 224 226 230 233 234 234 233 230 228 227 226 223 221 222 223 223 207 207 206 223 237 265 270 291 293 297 301 305 306 316 315 305 308 313 313 318
224 220 223 225 226 223 221 223 227 229 229 234 234 232 232 228 226 225 224 222 223 222 218 234 206 221 214 238 257 256 269 282 292 291 293 300 311 313 305 312 312 310 318
226 223 221 222 224 226 223 222 224 227 230 229 231 231 230 227 227 225 225 224 223 222 224 218 233 223 233 230 256 257 265 270 279 287 291 298 307 312 322 319 311 309 303
229 225 222 220 222 225 225 225 227 228 231 232 230 228 231 225 226 224 225 226 225 225 226 229 226 222 232 235 251 260 259 279 271 278 272 283 293 294 306 312 307 303 310
232 228 224 224 224 226 226 224 223 225 228 229 231 231 232 230 227 227 225 227 225 223 224 226 235 237 244 244 250 250 254 259 275 285 290 270 263 288 304 300 298 298 307
239 234 230 227 227 226 225 223 223 224 223 225 230 231 233 234 233 232 224 225 223 222 221 223 228 230 237 231 226 237 248 262 283 289 271 261 278 303 299 286 276 294 304
244 240 236 231 229 229 228 225 225 222 224 222 223 228 230 232 233 230 229 232 230 218 212 209 214 219 231 232 234 233 231 249 297 239 272 284 303 297 293 275 289 300 303
248 246 243 237 235 234 233 231 228 225 224 224 223 223 225 226 229 228 229 228 230 231 233 227 214 222 227 227 224 216 221 237 233 256 283 292 291 290 285 290 304 303 296
251 249 248 245 240 238 237 236 234 231 230 230 227 226 226 224 225 224 224 219 223 224 226 228 233 237 232 229 228 235 240 241 251 256 261 253 263 281 296 309 309 299 296
261 251 250 250 247 244 241 238 234 231 231 231 231 231 229 229 227 227 221 219 220 221 224 228 229 226 219 219 221 219 205 204 230 245 219 237 260 291 305 326 113 187 277
290 276 259 253 253 252 247 242 237 228 230 229 231 233 232 230 230 229 220 215 213 219 218 221 224 228 230 229 230 232 226 209 197 227 218 209 214 274 312 243 241 267 308